SR9NCI Weather Reports


time (UTC)temp
F
wind
direction
speed
knots
gust
knots
rain 1hr
in
rain 24hr
in
rain mn
in
humidity
%
barometer
mb
20260906212642 56 153 2.6 6.1 0.00 0.00 0.00
20260906212241 55 157 1.7 2.6 0.00 0.00 0.00
20260906211839 57 157 2.6 3.5 0.00 0.00 0.00
20260906211430 57 157 2.6 3.5 0.00 0.00 0.00
20260906211028 55 157 0.9 1.7 0.00 0.00 0.00
20260906210627 56 157 1.7 2.6 0.00 0.00 0.00
20260906210226 56 157 1.7 3.5 0.00 0.00 0.00
20260906205824 55 157 0.9 1.7 0.00 0.00 0.00
20260906205422 55 157 0.9 2.6 0.00 0.00 0.00
20260906205020 55 157 0.9 1.7 0.00 0.00 0.00
20260906204619 55 157 0.9 1.7 0.00 0.00 0.00
20260906204218 55 157 1.7 2.6 0.00 0.00 0.00
20260906203815 55 157 0.9 2.6 0.00 0.00 0.00
20260906203407 55 136 1.7 3.5 0.00 0.00 0.00
20260906203005 56 21 0.9 1.7 0.00 0.00 0.00
20260906202604 56 21 1.7 2.6 0.00 0.00 0.00
20260906202202 56 21 0.9 1.7 0.00 0.00 0.00
20260906201800 55 21 1.7 2.6 0.00 0.00 0.00
20260906201359 56 21 1.7 2.6 0.00 0.00 0.00
20260906200958 55 21 0.9 1.7 0.00 0.00 0.00
20260906200555 54 21 1.7 1.7 0.00 0.00 0.00
20260906200154 54 21 1.7 1.7 0.00 0.00 0.00
20260906195752 54 21 1.7 1.7 0.00 0.00 0.00
20260906195345 57 21 0.9 1.7 0.00 0.00 0.00
20260906194943 57 21 0.0 0.0 0.00 0.00 0.00
20260906194541 57 21 0.0 0.0 0.00 0.00 0.00
20260906194139 57 21 0.0 0.0 0.00 0.00 0.00
20260906193737 57 21 0.0 0.0 0.00 0.00 0.00
20260906193336 57 21 0.0 0.9 0.00 0.00 0.00
20260906192933 58 21 0.9 1.7 0.00 0.00 0.00
20260906192532 58 21 0.9 1.7 0.00 0.00 0.00
20260906192131 58 21 0.0 1.7 0.00 0.00 0.00
20260906191730 58 21 0.9 1.7 0.00 0.00 0.00
20260906191320 58 21 1.7 1.7 0.00 0.00 0.00
20260906190918 59 21 1.7 1.7 0.00 0.00 0.00
20260906190517 59 21 1.7 1.7 0.00 0.00 0.00
20260906190116 58 21 1.7 2.6 0.00 0.00 0.00
20260906185712 58 21 0.9 1.7 0.00 0.00 0.00
20260906185310 59 21 0.0 0.9 0.00 0.00 0.00
20260906184908 59 21 0.0 0.0 0.00 0.00 0.00
20260906184508 60 21 0.9 1.7 0.00 0.00 0.00
20260906184107 59 21 0.9 2.6 0.00 0.00 0.00
20260906183703 59 21 1.7 1.7 0.00 0.00 0.00
20260906183256 60 21 1.7 2.6 0.00 0.00 0.00
20260906182854 61 21 1.7 1.7 0.00 0.00 0.00
20260906182453 61 21 0.9 1.7 0.00 0.00 0.00
20260906182051 61 21 0.0 1.7 0.00 0.00 0.00
20260906181649 61 21 0.9 1.7 0.00 0.00 0.00
20260906181248 61 21 1.7 1.7 0.00 0.00 0.00
20260906180846 61 21 0.9 1.7 0.00 0.00 0.00
20260906180444 61 6 1.7 3.5 0.00 0.00 0.00
20260906180043 61 0 0.9 2.6 0.00 0.00 0.00
20260906175641 62 0 1.7 3.5 0.00 0.00 0.00
20260906175233 62 13 0.9 4.3 0.00 0.00 0.00
20260906174830 62 2 0.9 1.7 0.00 0.00 0.00
20260906174429 62 21 0.9 1.7 0.00 0.00 0.00
20260906174028 62 5 0.9 2.6 0.00 0.00 0.00
20260906173626 63 21 0.9 2.6 0.00 0.00 0.00
20260906173225 63 16 2.6 5.2 0.00 0.00 0.00
20260906172822 63 20 1.7 3.5 0.00 0.00 0.00
20260906172421 63 21 1.7 2.6 0.00 0.00 0.00
20260906172020 64 21 1.7 3.5 0.00 0.00 0.00
20260906171619 64 0 0.9 2.6 0.00 0.00 0.00
20260906171209 65 359 2.6 4.3 0.00 0.00 0.00
20260906170808 65 0 1.7 2.6 0.00 0.00 0.00
20260906170407 65 0 0.9 2.6 0.00 0.00 0.00
20260906165603 66 0 0.9 1.7 0.00 0.00 0.00
20260906165202 66 358 1.7 2.6 0.00 0.00 0.00
20260906164800 66 0 1.7 3.5 0.00 0.00 0.00
20260906164359 68 341 2.6 5.2 0.00 0.00 0.00
20260906163957 69 340 2.6 5.2 0.00 0.00 0.00
20260906163555 72 318 0.9 3.5 0.00 0.00 0.00
20260906163147 72 308 1.7 3.5 0.00 0.00 0.00
20260906162745 72 325 3.5 5.2 0.00 0.00 0.00
20260906162344 72 324 3.5 5.2 0.00 0.00 0.00
20260906161942 73 322 1.7 3.5 0.00 0.00 0.00
20260906161540 73 299 3.5 5.2 0.00 0.00 0.00
20260906161139 70 317 3.5 5.2 0.00 0.00 0.00
20260906160737 70 315 2.6 7.8 0.00 0.00 0.00
20260906155934 70 317 2.6 6.1 0.00 0.00 0.00
20260906155532 70 314 2.6 4.3 0.00 0.00 0.00
20260906155124 70 301 1.7 4.3 0.00 0.00 0.00
20260906154721 69 314 3.5 5.2 0.00 0.00 0.00
20260906154320 68 11 2.6 6.1 0.00 0.00 0.00
20260906153919 69 302 1.7 5.2 0.00 0.00 0.00
20260906153517 69 308 3.5 5.2 0.00 0.00 0.00
20260906153115 69 304 4.3 8.7 0.00 0.00 0.00
20260906152713 70 291 3.5 6.1 0.00 0.00 0.00
20260906152312 70 350 1.7 5.2 0.00 0.00 0.00
20260906151911 70 302 1.7 5.2 0.00 0.00 0.00
20260906151510 70 299 2.6 5.2 0.00 0.00 0.00
20260906150659 69 293 4.3 7.8 0.00 0.00 0.00
20260906150258 70 291 5.2 9.6 0.00 0.00 0.00
20260906145857 70 313 3.5 5.2 0.00 0.00 0.00
20260906145454 70 343 3.5 6.1 0.00 0.00 0.00
20260906145053 70 358 2.6 4.3 0.00 0.00 0.00
20260906144651 70 301 2.6 7.8 0.00 0.00 0.00
20260906144250 70 320 3.5 6.1 0.00 0.00 0.00
20260906143848 69 353 3.5 7.8 0.00 0.00 0.00
20260906143446 70 337 3.5 7.0 0.00 0.00 0.00
20260906143038 71 308 3.5 8.7 0.00 0.00 0.00
20260906142636 69 322 4.3 8.7 0.00 0.00 0.00
20260906142234 69 304 6.1 12.2 0.00 0.00 0.00
20260906141833 70 302 5.2 9.6 0.00 0.00 0.00
20260906141431 69 332 3.5 6.1 0.00 0.00 0.00
20260906141030 69 300 4.3 7.8 0.00 0.00 0.00
20260906140628 69 318 5.2 10.4 0.00 0.00 0.00
20260906140225 69 313 6.1 10.4 0.00 0.00 0.00
20260906135824 71 297 2.6 5.2 0.00 0.00 0.00
20260906135422 70 302 2.6 5.2 0.00 0.00 0.00
20260906135014 70 299 4.3 7.8 0.00 0.00 0.00
20260906134611 70 311 3.5 7.0 0.00 0.00 0.00
20260906134210 70 251 2.6 4.3 0.00 0.00 0.00
20260906133809 70 293 2.6 4.3 0.00 0.00 0.00
20260906133407 70 302 7.0 11.3 0.00 0.00 0.00
20260906133005 70 306 4.3 8.7 0.00 0.00 0.00
20260906132603 68 310 6.1 8.7 0.00 0.00 0.00
20260906132202 69 307 3.5 6.1 0.00 0.00 0.00
20260906131801 68 314 3.5 7.0 0.00 0.00 0.00
20260906131358 69 331 2.6 7.0 0.00 0.00 0.00
20260906130950 69 310 2.6 5.2 0.00 0.00 0.00
20260906130548 70 315 4.3 7.8 0.00 0.00 0.00
20260906130147 69 319 5.2 8.7 0.00 0.00 0.00
20260906125746 70 325 5.2 8.7 0.00 0.00 0.00
20260906125343 69 320 5.2 8.7 0.00 0.00 0.00
20260906124942 68 315 5.2 10.4 0.00 0.00 0.00
20260906124541 69 302 6.1 8.7 0.00 0.00 0.00
20260906124140 68 287 5.2 7.8 0.00 0.00 0.00
20260906123737 69 311 4.3 7.8 0.00 0.00 0.00
20260906123336 70 330 4.3 7.8 0.00 0.00 0.00
20260906122928 71 336 4.3 9.6 0.00 0.00 0.00
20260906122526 70 314 5.2 9.6 0.00 0.00 0.00
20260906122124 70 301 6.1 13.9 0.00 0.00 0.00
20260906121723 70 287 7.0 10.4 0.00 0.00 0.00
20260906121321 69 289 4.3 7.0 0.00 0.00 0.00
20260906120920 69 289 6.1 8.7 0.00 0.00 0.00
20260906120517 68 277 7.8 13.9 0.00 0.00 0.00
20260906120116 69 279 7.0 10.4 0.00 0.00 0.00
20260906115715 68 327 6.1 10.4 0.00 0.00 0.00
20260906115313 68 313 7.8 13.9 0.00 0.00 0.00
20260906114905 69 294 7.0 12.2 0.00 0.00 0.00
20260906114502 69 303 7.8 12.2 0.00 0.00 0.00
20260906114101 68 309 6.1 10.4 0.00 0.00 0.00
20260906113700 67 277 7.0 9.6 0.00 0.00 0.00
20260906113258 67 296 7.0 9.6 0.00 0.00 0.00
20260906112856 67 281 8.7 15.6 0.00 0.00 0.00
20260906112454 68 267 6.1 9.6 0.00 0.00 0.00
20260906112053 68 321 4.3 9.6 0.00 0.00 0.00
20260906111652 67 294 5.2 10.4 0.00 0.00 0.00
20260906111249 67 295 7.0 13.0 0.00 0.00 0.00
20260906110841 66 294 6.1 8.7 0.00 0.00 0.00
20260906110439 66 302 8.7 12.2 0.00 0.00 0.00
20260906110038 68 288 8.7 17.4 0.00 0.00 0.00
20260906105636 68 287 4.3 7.0 0.00 0.00 0.00
20260906104833 66 286 7.0 10.4 0.00 0.00 0.00
20260906104432 67 282 3.5 7.8 0.00 0.00 0.00
20260906104031 66 288 5.2 8.7 0.00 0.00 0.00
20260906103628 66 301 7.8 13.0 0.00 0.00 0.00
20260906103227 68 300 6.1 12.2 0.00 0.00 0.00
20260906102819 67 309 4.3 8.7 0.00 0.00 0.00
20260906102417 66 304 6.1 9.6 0.00 0.00 0.00
20260906102015 64 310 6.1 10.4 0.00 0.00 0.00
20260906101614 65 303 7.0 12.2 0.00 0.00 0.00
20260906101212 66 332 4.3 7.8 0.00 0.00 0.00
20260906100811 68 318 3.5 6.1 0.00 0.00 0.00
20260906100408 67 304 2.6 6.1 0.00 0.00 0.00
20260906100007 64 301 6.1 8.7 0.00 0.00 0.00
20260906095606 65 322 5.2 8.7 0.00 0.00 0.00
20260906095204 65 301 6.1 9.6 0.00 0.00 0.00
20260906094755 66 325 6.1 11.3 0.00 0.00 0.00
20260906094353 66 297 4.3 7.8 0.00 0.00 0.00
20260906093952 65 285 6.1 9.6 0.00 0.00 0.00
20260906093551 64 314 6.1 10.4 0.00 0.00 0.00
20260906093149 66 307 7.0 10.4 0.00 0.00 0.00
20260906092747 68 304 4.3 10.4 0.00 0.00 0.00
20260906092345 67 299 3.5 6.1 0.00 0.00 0.00
20260906091944 65 289 7.0 9.6 0.00 0.00 0.00
20260906091543 64 300 4.3 6.1 0.00 0.00 0.00
20260906091140 64 314 4.3 10.4 0.00 0.00 0.00
20260906090733 64 331 4.3 7.8 0.00 0.00 0.00
20260906090331 65 297 7.8 13.0 0.00 0.00 0.00
20260906085930 65 295 6.1 9.6 0.00 0.00 0.00
20260906085528 64 297 7.0 12.2 0.00 0.00 0.00
20260906085126 65 296 6.1 11.3 0.00 0.00 0.00
20260906084725 65 287 6.1 8.7 0.00 0.00 0.00
20260906084323 65 291 9.6 15.6 0.00 0.00 0.00
20260906083921 65 303 6.1 9.6 0.00 0.00 0.00
20260906083520 65 296 7.8 11.3 0.00 0.00 0.00
20260906083118 64 292 5.2 8.7 0.00 0.00 0.00
20260906082710 65 319 5.2 8.7 0.00 0.00 0.00
20260906082308 65 314 3.5 7.0 0.00 0.00 0.00
20260906081906 63 311 7.0 10.4 0.00 0.00 0.00
20260906081504 64 321 7.8 14.8 0.00 0.00 0.00
20260906081102 64 309 6.1 12.2 0.00 0.00 0.00
20260906080701 64 304 6.1 11.3 0.00 0.00 0.00
20260906080258 63 302 7.0 11.3 0.00 0.00 0.00
20260906075858 63 288 6.1 8.7 0.00 0.00 0.00
20260906075456 63 296 7.8 12.2 0.00 0.00 0.00
20260906075055 64 301 5.2 8.7 0.00 0.00 0.00
20260906074645 65 310 5.2 11.3 0.00 0.00 0.00
20260906074244 63 315 7.0 9.6 0.00 0.00 0.00
20260906073843 63 310 6.1 8.7 0.00 0.00 0.00
20260906073442 64 306 4.3 7.8 0.00 0.00 0.00
20260906073039 62 303 5.2 8.7 0.00 0.00 0.00
20260906072638 62 299 5.2 8.7 0.00 0.00 0.00
20260906072236 63 314 4.3 7.8 0.00 0.00 0.00
20260906071835 63 285 4.3 8.7 0.00 0.00 0.00
20260906071434 63 300 6.1 8.7 0.00 0.00 0.00
20260906071031 62 294 6.1 10.4 0.00 0.00 0.00
20260906070623 63 282 7.0 10.4 0.00 0.00 0.00
20260906070221 62 299 4.3 7.8 0.00 0.00 0.00
20260906065820 62 293 5.2 10.4 0.00 0.00 0.00
20260906065418 62 294 6.1 7.8 0.00 0.00 0.00
20260906065016 64 291 3.5 6.1 0.00 0.00 0.00
20260906064615 64 279 4.3 7.0 0.00 0.00 0.00
20260906064213 63 277 6.1 8.7 0.00 0.00 0.00
20260906063811 63 288 7.8 10.4 0.00 0.00 0.00
20260906063410 63 293 5.2 8.7 0.00 0.00 0.00
20260906063008 62 279 7.8 12.2 0.00 0.00 0.00
20260906062600 63 276 6.1 12.2 0.00 0.00 0.00
20260906062158 63 288 4.3 7.8 0.00 0.00 0.00
20260906061756 64 275 3.5 6.1 0.00 0.00 0.00
20260906061355 63 283 4.3 7.0 0.00 0.00 0.00
20260906060954 62 259 3.5 7.0 0.00 0.00 0.00
20260906060553 61 270 3.5 7.0 0.00 0.00 0.00
20260906055749 61 276 4.3 7.0 0.00 0.00 0.00
20260906055348 60 270 5.2 7.0 0.00 0.00 0.00
20260906054946 60 269 6.1 7.8 0.00 0.00 0.00
20260906054537 62 255 4.3 7.8 0.00 0.00 0.00
20260906054135 62 252 3.5 5.2 0.00 0.00 0.00
20260906053734 62 268 4.3 7.8 0.00 0.00 0.00
20260906053333 64 255 3.5 6.1 0.00 0.00 0.00
20260906052930 63 246 3.5 6.1 0.00 0.00 0.00
20260906052529 62 248 2.6 4.3 0.00 0.00 0.00
20260906052127 60 270 0.0 1.7 0.00 0.00 0.00
20260906051726 62 272 1.7 1.7 0.00 0.00 0.00
20260906051324 61 292 0.0 1.7 0.00 0.00 0.00
20260906050922 61 292 0.0 1.7 0.00 0.00 0.00
20260906050514 59 292 0.0 1.7 0.00 0.00 0.00
20260906050113 57 292 0.0 0.0 0.00 0.00 0.00
20260906045711 58 292 0.0 0.0 0.00 0.00 0.00
20260906045309 58 292 0.0 0.0 0.00 0.00 0.00
20260906044908 58 270 0.0 0.0 0.00 0.00 0.00
20260906044507 58 270 0.0 1.7 0.00 0.00 0.00
20260906044105 58 270 0.0 0.0 0.00 0.00 0.00
20260906043703 59 270 0.0 0.9 0.00 0.00 0.00
20260906043302 60 270 0.0 0.0 0.00 0.00 0.00
20260906042900 63 270 0.0 1.7 0.00 0.00 0.00
20260906042452 59 292 2.6 4.3 0.00 0.00 0.00
20260906042049 58 270 0.9 2.6 0.00 0.00 0.00
20260906041648 60 270 1.7 2.6 0.00 0.00 0.00
20260906041247 60 270 1.7 3.5 0.00 0.00 0.00
20260906040845 60 270 2.6 3.5 0.00 0.00 0.00
20260906040443 58 270 1.7 4.3 0.00 0.00 0.00
20260906040041 59 270 1.7 2.6 0.00 0.00 0.00
20260906035640 59 271 2.6 4.3 0.00 0.00 0.00
20260906035239 59 283 2.6 3.5 0.00 0.00 0.00
20260906034837 59 282 3.5 5.2 0.00 0.00 0.00
20260906034428 60 273 3.5 5.2 0.00 0.00 0.00
20260906034026 60 284 3.5 6.1 0.00 0.00 0.00
20260906033625 60 275 1.7 3.5 0.00 0.00 0.00
20260906033224 60 284 2.6 5.2 0.00 0.00 0.00
20260906032821 61 272 3.5 6.1 0.00 0.00 0.00
20260906032419 61 277 3.5 5.2 0.00 0.00 0.00
20260906032017 61 282 2.6 5.2 0.00 0.00 0.00
20260906031616 61 272 3.5 7.8 0.00 0.00 0.00
20260906031213 61 273 5.2 7.0 0.00 0.00 0.00
20260906030812 60 283 4.3 8.7 0.00 0.00 0.00
20260906030404 60 284 5.2 7.8 0.00 0.00 0.00
20260906030002 60 288 4.3 5.2 0.00 0.00 0.00
20260906025600 60 292 6.1 10.4 0.00 0.00 0.00
20260906025159 59 282 5.2 8.7 0.00 0.00 0.00
20260906024757 59 291 4.3 7.0 0.00 0.00 0.00
20260906024356 59 287 4.3 7.8 0.00 0.00 0.00
20260906023953 60 278 6.1 10.4 0.00 0.00 0.00
20260906023551 61 272 2.6 6.1 0.00 0.00 0.00
20260906023150 59 276 3.5 7.0 0.00 0.00 0.00
20260906022749 60 271 4.3 7.8 0.00 0.00 0.00
20260906022341 60 275 4.3 7.8 0.00 0.00 0.00
20260906021938 60 282 5.2 9.6 0.00 0.00 0.00
20260906021537 60 277 5.2 8.7 0.00 0.00 0.00
20260906021136 61 270 3.5 6.1 0.00 0.00 0.00
20260906020734 61 271 4.3 7.0 0.00 0.00 0.00
20260906020332 60 271 3.5 6.1 0.00 0.00 0.00
20260906015930 60 269 4.3 7.8 0.00 0.00 0.00
20260906015529 61 273 4.3 8.7 0.00 0.00 0.00
20260906015128 59 291 3.5 7.0 0.00 0.00 0.00
20260906014725 60 278 3.5 7.0 0.00 0.00 0.00
20260906014317 60 287 4.3 7.0 0.00 0.00 0.00
20260906013915 60 278 6.1 9.6 0.00 0.00 0.00
20260906013514 59 273 4.3 7.8 0.00 0.00 0.00
20260906013113 59 272 5.2 8.7 0.00 0.00 0.00
20260906012710 60 271 5.2 7.8 0.00 0.00 0.00
20260906012309 61 269 6.1 10.4 0.00 0.00 0.00
20260906011907 60 272 5.2 7.8 0.00 0.00 0.00
20260906011506 60 257 3.5 6.1 0.00 0.00 0.00
20260906011104 61 262 4.3 6.1 0.00 0.00 0.00
20260906010702 63 256 3.5 5.2 0.00 0.00 0.00
20260906010254 61 255 3.5 6.1 0.00 0.00 0.00
20260906005852 64 250 3.5 7.8 0.00 0.00 0.00
20260906005450 65 227 2.6 4.3 0.00 0.00 0.00
20260906005049 63 228 2.6 4.3 0.00 0.00 0.00
20260906004648 64 231 3.5 5.2 0.00 0.00 0.00
20260906004247 65 231 2.6 4.3 0.00 0.00 0.00
20260906003844 65 234 2.6 4.3 0.00 0.00 0.00
20260906003442 64 225 1.7 2.6 0.00 0.00 0.00
20260906002639 63 225 1.7 3.5 0.00 0.00 0.00
20260906002231 65 225 1.7 6.1 0.00 0.00 0.00
20260906001828 64 225 0.9 2.6 0.00 0.00 0.00
20260906001427 66 225 1.7 3.5 0.00 0.00 0.00
20260906001026 66 248 1.7 2.6 0.00 0.00 0.00
20260906000625 66 248 1.7 2.6 0.00 0.00 0.00
20260906000303 65 248 2.6 3.5 0.00 0.00 0.00
20260906000222 65 248 2.6 3.5 0.00 0.00 0.00
20260905235821 64 248 1.7 3.5 0.00 0.00 0.00
20260905235420 64 253 1.7 2.6 0.00 0.00 0.00
20260905235019 64 247 4.3 7.0 0.00 0.00 0.00
20260905234616 63 256 3.5 5.2 0.00 0.00 0.00
20260905234208 63 253 2.6 4.3 0.00 0.00 0.00
20260905233405 59 288 3.5 7.0 0.00 0.00 0.00
20260905233003 60 269 5.2 8.7 0.00 0.00 0.00
20260905232601 60 289 5.2 8.7 0.00 0.00 0.00
20260905232200 61 290 4.3 6.1 0.00 0.00 0.00
20260905231758 61 298 4.3 7.0 0.00 0.00 0.00
20260905231357 61 291 4.3 7.8 0.00 0.00 0.00
20260905230955 61 301 3.5 6.1 0.00 0.00 0.00
20260905230553 61 303 4.3 7.8 0.00 0.00 0.00
20260905230145 61 290 5.2 7.8 0.00 0.00 0.00
20260905225743 61 298 3.5 6.1 0.00 0.00 0.00
20260905225341 61 281 4.3 7.0 0.00 0.00 0.00
20260905224940 62 301 3.5 7.8 0.00 0.00 0.00
20260905224538 62 306 3.5 7.8 0.00 0.00 0.00
20260905224137 62 294 3.5 6.1 0.00 0.00 0.00
20260905223734 62 299 3.5 7.8 0.00 0.00 0.00
20260905223333 62 292 5.2 9.6 0.00 0.00 0.00
20260905223032 62 302 5.2 10.4 0.00 0.00 0.00
20260905222932 62 302 5.2 10.4 0.00 0.00 0.00
20260905222531 62 301 5.2 7.8 0.00 0.00 0.00
20260905222121 62 299 4.3 7.8 0.00 0.00 0.00
20260905221719 61 303 3.5 6.1 0.00 0.00 0.00
20260905221319 62 308 4.3 7.8 0.00 0.00 0.00
20260905220918 63 315 2.6 5.2 0.00 0.00 0.00
20260905220516 62 298 3.5 7.8 0.00 0.00 0.00
20260905220114 62 333 4.3 10.4 0.00 0.00 0.00
20260905215712 62 322 6.1 15.6 0.00 0.00 0.00
20260905215311 62 328 7.8 12.2 0.00 0.00 0.00
20260905214910 63 323 5.2 9.6 0.00 0.00 0.00
20260905214507 63 319 5.2 11.3 0.00 0.00 0.00
20260905214059 64 324 6.1 9.6 0.00 0.00 0.00
20260905213657 64 320 7.0 11.3 0.00 0.00 0.00
20260905213256 65 314 6.1 12.2 0.00 0.00 0.00
20260905212854 65 282 5.2 8.7 0.00 0.00 0.00